SCOUT A DEB, 2994

Orbit data source: Space-Track

SCOUT A DEB, 2994 is space debris in LEO originally from a launch on Mon, 25 Sep 1967 UTC launched from the Air Force Western Test Range (AFWTR). Debris objects in space refer to the collection of defunct objects orbiting the Earth. Examples of debris include non-operational satellites, rocket bodies, and fragments generated from explosions, collisions, or faulty payload assembly.

Loading next visibility...
Identifier
2994, 1967-092C
Orbit
LEO
Country
Flag of USUS
Related business
Manufacturer
Unknown
Mission
Spacecraft
Bus & Motor
Unknown
Mass
Unknown
Launch date (UTC)
1967-09-25 (59 years ago)
Launch vehicle
Unknown
Launch site
Air Force Western Test Range (AFWTR)
Object type
Payload
Rocket body
Debris
Shape & HBR
Unknown shape, 0.1 m
Radar Cross Section
Medium (>0.1 m² and <1 m²)

Expand to show TLE details & history
Last TLE update: 10 hours ago

TLE from 10 hours ago
0 SCOUT A DEB
1 02994U 67092C   26177.87615569  .00000518  00000-0  34804-3 0  9994
2 02994  89.4356 344.6032 0088924 175.3940 184.8078 13.97461152976134
Epoch: 2026-06-26T21:01Z
TLE epoch observation values (Epoch: 2026-06-26T21:01:39.851Z)
Latitude
0.00006°
Longitude
114.18878°
Altitude
970.155 km
Speed
7.334 km/s
True Right ascension
22h 58m 24s
True Declination
0° 00' 00"
Sunlit
Object was in daylight at epoch
Visualization orbit readout
Latitude
Unknown
Longitude
Unknown
Altitude
Unknown
Speed
Unknown
Apparent Right ascension
Unknown
Apparent Declination
Unknown
Sunlit
N/A
Visualization observer readout
Local Sidereal Time
18:46:19
Azimuth
Unknown
Elevation
Unknown
Doppler factor
Unknown
Orbital elements
Apogee altitude
964.298 km
Perigee altitude
834.865 km
Semi-major axis
7,277.718 km
Eccentricity
0.00889
Inclination
89.4356°
RAAN
344.6032°
Arg. of periapsis
175.394°
True anomaly
184.72333°
Mean anomaly
184.8078°
Eccentric anomaly
184.76547°
Mean motion
3.49583 °/min
Orbital period
102.98 mins
BSTAR
0.00034804
Loading maneuver chart data...
Computing Atmospheric mass density...
Loading historical data...
Loading historical data...
Loading historical data...
Loading historical data...
Loading historical data...
Loading historical data...
Loading historical data...

Documentation

Showing up to 5 results
|